DAL2574 KSAV-KMSP

Flight info

Callsign DAL2574
Flight time N/A
Altitude 34000
Route SMALZ IRQ J99 RYANS/N0460F360 J99 IIU J89 OBK KAMMA KKILR3
Aircraft A320/M-SDE3FGHIRWY/LB1

Departure

Time 2026-05-07 00:22
Airport Savannah Hilton Head International Airport (KSAV)

Arrival

Time N/A
Airport Minneapolis–Saint Paul International Airport / Wold–Chamberlain Field (KMSP)
Time Latitude Longitude Altitude Speed Heading
2026-05-06 23:59 32.13518 -81.20740 53 ft 0 kts
2026-05-07 00:13 32.13503 -81.20740 53 ft 2 kts 358°
2026-05-07 00:14 32.13486 -81.20739 51 ft 2 kts 355°
2026-05-07 00:14 32.13470 -81.20736 50 ft 2 kts 346°
2026-05-07 00:14 32.13454 -81.20730 53 ft 2 kts 313°
2026-05-07 00:14 32.13448 -81.20715 50 ft 1 kts 269°
2026-05-07 00:15 32.13448 -81.20710 52 ft 0 kts 268°
2026-05-07 00:16 32.13448 -81.20718 51 ft 3 kts 271°
2026-05-07 00:16 32.13449 -81.20750 53 ft 8 kts 271°
2026-05-07 00:16 32.13431 -81.20808 52 ft 7 kts 215°
2026-05-07 00:17 32.13378 -81.20815 53 ft 9 kts 182°
2026-05-07 00:17 32.13309 -81.20818 53 ft 11 kts 181°
2026-05-07 00:17 32.13215 -81.20819 53 ft 17 kts 181°
2026-05-07 00:17 32.13112 -81.20819 53 ft 10 kts 180°
2026-05-07 00:18 32.13047 -81.20844 52 ft 11 kts 240°
2026-05-07 00:18 32.13042 -81.20947 52 ft 15 kts 270°
2026-05-07 00:18 32.13043 -81.21029 52 ft 15 kts 271°
2026-05-07 00:18 32.13044 -81.21153 52 ft 15 kts 271°
2026-05-07 00:19 32.13045 -81.21279 52 ft 15 kts 270°
2026-05-07 00:19 32.13046 -81.21403 52 ft 15 kts 270°
2026-05-07 00:19 32.13047 -81.21526 52 ft 15 kts 271°
2026-05-07 00:19 32.13048 -81.21646 52 ft 15 kts 270°
2026-05-07 00:20 32.13049 -81.21762 51 ft 14 kts 270°
2026-05-07 00:20 32.13018 -81.21855 50 ft 14 kts 204°
2026-05-07 00:20 32.12974 -81.21860 47 ft 0 kts 181°
2026-05-07 00:20 32.12953 -81.21861 45 ft 8 kts 181°
2026-05-07 00:21 32.12894 -81.21862 38 ft 7 kts 180°
2026-05-07 00:21 32.12874 -81.21816 38 ft 6 kts 95°
2026-05-07 00:21 32.12874 -81.21797 39 ft 9 kts 89°
2026-05-07 00:21 32.12870 -81.21410 41 ft 84 kts 90°
2026-05-07 00:22 32.12862 -81.20470 41 ft 143 kts 90°
2026-05-07 00:22 32.12840 -81.19125 235 ft 170 kts 97°
2026-05-07 00:22 32.12768 -81.17803 999 ft 157 kts 98°
2026-05-07 00:22 32.12735 -81.16499 1558 ft 161 kts 93°
2026-05-07 00:23 32.12745 -81.15157 2050 ft 167 kts 91°
2026-05-07 00:23 32.13152 -81.13790 2295 ft 192 kts 46°
2026-05-07 00:23 32.14365 -81.13078 2471 ft 206 kts 357°
2026-05-07 00:23 32.15708 -81.13586 2672 ft 215 kts 317°
2026-05-07 00:24 32.16876 -81.14858 2859 ft 237 kts 311°
2026-05-07 00:24 32.18062 -81.16341 3224 ft 257 kts 309°
2026-05-07 00:24 32.19277 -81.17896 3928 ft 263 kts 309°
2026-05-07 00:24 32.20531 -81.19487 4731 ft 266 kts 309°
2026-05-07 00:25 32.21803 -81.21080 5554 ft 267 kts 309°